| time (UTC) | temp F | wind direction | speed MPH | gust MPH | rain 1hr in | rain 24hr in | rain mn in | humidity % | barometer mb |
| 20260504180541 | 64 | 9 | 22.0 | 27.0 | 0.00 | 0.00 | 0.00 | 32 | 1010.4 |
| 20260504180040 | 65 | 26 | 20.0 | 24.0 | 0.00 | 0.00 | 0.00 | 31 | 1010.5 |
| 20260504175537 | 64 | 43 | 18.0 | 26.0 | 0.00 | 0.00 | 0.00 | 31 | 1010.4 |
| 20260504175034 | 63 | 9 | 18.0 | 23.0 | 0.00 | 0.00 | 0.00 | 31 | 1010.3 |
| 20260504174532 | 64 | 20 | 15.0 | 23.0 | 0.00 | 0.00 | 0.00 | 31 | 1010.3 |
| 20260504174028 | 64 | 28 | 31.0 | 35.0 | 0.00 | 0.00 | 0.00 | 30 | 1010.2 |
| 20260504173525 | 63 | 28 | 25.0 | 32.0 | 0.00 | 0.00 | 0.00 | 31 | 1010.1 |
| 20260504173022 | 62 | 72 | 16.0 | 27.0 | 0.00 | 0.00 | 0.00 | 31 | 1009.9 |
| 20260504172518 | 62 | 26 | 28.0 | 33.0 | 0.00 | 0.00 | 0.00 | 31 | 1010.2 |
| 20260504172015 | 64 | 7 | 23.0 | 39.0 | 0.00 | 0.00 | 0.00 | 31 | 1009.6 |
| 20260504171512 | 66 | 6 | 10.0 | 11.0 | 0.00 | 0.00 | 0.00 | 24 | 1009.6 |
| 20260504171009 | 66 | 38 | 6.0 | 7.0 | 0.00 | 0.00 | 0.00 | 24 | 1009.5 |
| 20260504170504 | 67 | 19 | 10.0 | 15.0 | 0.00 | 0.00 | 0.00 | 24 | 1009.5 |
| 20260504160425 | 66 | 40 | 3.0 | 9.0 | 0.00 | 0.00 | 0.00 | 24 | 1009.5 |
| 20260504150849 | 64 | 318 | 7.0 | 14.0 | 0.00 | 0.00 | 0.00 | 24 | 1009.5 |
| 20260504150345 | 63 | 359 | 7.0 | 11.0 | 0.00 | 0.00 | 0.00 | 26 | 1009.7 |
| 20260504141315 | 57 | 275 | 11.0 | 13.0 | 0.00 | 0.00 | 0.00 | 31 | 1010.2 |
| 20260504140812 | 57 | 255 | 10.0 | 13.0 | 0.00 | 0.00 | 0.00 | 32 | 1010.2 |
| 20260504140308 | 56 | 290 | 6.0 | 13.0 | 0.00 | 0.00 | 0.00 | 34 | 1009.9 |
| 20260504130737 | 48 | 212 | 3.0 | 5.0 | 0.00 | 0.00 | 0.00 | 50 | 1009.7 |
| 20260504130232 | 47 | 219 | 2.0 | 3.0 | 0.00 | 0.00 | 0.00 | 54 | 1009.7 |
| 20260504120156 | 37 | 270 | 6.0 | 9.0 | 0.00 | 0.00 | 0.00 | 65 | 1009.8 |
| 20260504110624 | 37 | 282 | 2.0 | 5.0 | 0.00 | 0.00 | 0.00 | 68 | 1009.8 |
| 20260504110120 | 37 | 201 | 0.0 | 1.0 | 0.00 | 0.00 | 0.00 | 68 | 1010.1 |
| 20260504100545 | 36 | 268 | 0.0 | 0.0 | 0.00 | 0.00 | 0.00 | 68 | 1010.2 |
| 20260504081939 | 35 | 181 | 1.0 | 1.0 | 0.00 | 0.00 | 0.00 | 67 | 1010.9 |
| 20260504081436 | 35 | 225 | 3.0 | 7.0 | 0.00 | 0.00 | 0.00 | 67 | 1011.1 |
| 20260504080932 | 36 | 280 | 3.0 | 6.0 | 0.00 | 0.00 | 0.00 | 66 | 1011.1 |
| 20260504080428 | 37 | 223 | 0.0 | 0.0 | 0.00 | 0.00 | 0.00 | 68 | 1011.2 |
| 20260504070356 | 37 | 207 | 0.0 | 1.0 | 0.00 | 0.00 | 0.00 | 62 | 1012.3 |
| 20260504050744 | 42 | 197 | 0.0 | 0.0 | 0.00 | 0.00 | 0.00 | 64 | 1012.3 |
| 20260504050241 | 42 | 197 | 0.0 | 0.0 | 0.00 | 0.00 | 0.00 | 64 | 1012.8 |
| 20260504045738 | 42 | 207 | 0.0 | 0.0 | 0.00 | 0.00 | 0.00 | 65 | 1012.5 |
| 20260504045233 | 42 | 206 | 0.0 | 0.0 | 0.00 | 0.00 | 0.00 | 62 | 1012.4 |
| 20260504044731 | 43 | 198 | 0.0 | 0.0 | 0.00 | 0.00 | 0.00 | 68 | 1012.9 |
| 20260504044228 | 44 | 201 | 0.0 | 0.0 | 0.00 | 0.00 | 0.00 | 55 | 1012.7 |
| 20260504043725 | 44 | 229 | 1.0 | 3.0 | 0.00 | 0.00 | 0.00 | 54 | 1012.7 |
| 20260504043222 | 44 | 239 | 0.0 | 2.0 | 0.00 | 0.00 | 0.00 | 55 | 1012.9 |
| 20260504042720 | 45 | 250 | 3.0 | 3.0 | 0.00 | 0.00 | 0.00 | 54 | 1013.0 |
| 20260504042216 | 46 | 204 | 0.0 | 0.0 | 0.00 | 0.00 | 0.00 | 53 | 1013.0 |
| 20260504041712 | 46 | 224 | 0.0 | 0.0 | 0.00 | 0.00 | 0.00 | 52 | 1013.1 |
| 20260504041208 | 45 | 217 | 0.0 | 0.0 | 0.00 | 0.00 | 0.00 | 52 | 1013.1 |
| 20260504040705 | 46 | 233 | 0.0 | 3.0 | 0.00 | 0.00 | 0.00 | 51 | 1013.1 |
| 20260504040202 | 48 | 282 | 0.0 | 3.0 | 0.00 | 0.00 | 0.00 | 48 | 1013.1 |
| 20260504035658 | 49 | 194 | 2.0 | 2.0 | 0.00 | 0.00 | 0.00 | 50 | 1013.4 |
| 20260504035155 | 51 | 180 | 0.0 | 2.0 | 0.00 | 0.00 | 0.00 | 47 | 1013.2 |
| 20260504034653 | 51 | 129 | 3.0 | 3.0 | 0.00 | 0.00 | 0.00 | 47 | 1013.1 |
| 20260504034150 | 52 | 157 | 3.0 | 3.0 | 0.00 | 0.00 | 0.00 | 46 | 1012.8 |
| 20260504033648 | 52 | 115 | 3.0 | 5.0 | 0.00 | 0.00 | 0.00 | 46 | 1012.5 |
| 20260504033145 | 51 | 102 | 3.0 | 5.0 | 0.00 | 0.00 | 0.00 | 46 | 1012.8 |
| 20260504032641 | 52 | 132 | 4.0 | 6.0 | 0.00 | 0.00 | 0.00 | 45 | 1012.8 |
| 20260504032139 | 52 | 97 | 2.0 | 2.0 | 0.00 | 0.00 | 0.00 | 45 | 1013.0 |
| 20260504031636 | 53 | 106 | 0.0 | 2.0 | 0.00 | 0.00 | 0.00 | 45 | 1012.9 |
| 20260504031132 | 53 | 124 | 3.0 | 6.0 | 0.00 | 0.00 | 0.00 | 44 | 1012.9 |
| 20260504030629 | 52 | 125 | 3.0 | 3.0 | 0.00 | 0.00 | 0.00 | 44 | 1012.7 |
| 20260504030125 | 51 | 111 | 3.0 | 3.0 | 0.00 | 0.00 | 0.00 | 45 | 1012.7 |
| 20260504025622 | 51 | 78 | 2.0 | 5.0 | 0.00 | 0.00 | 0.00 | 45 | 1012.9 |
| 20260504025119 | 52 | 75 | 1.0 | 5.0 | 0.00 | 0.00 | 0.00 | 44 | 1012.7 |
| 20260504024616 | 52 | 87 | 3.0 | 3.0 | 0.00 | 0.00 | 0.00 | 44 | 1012.7 |
| 20260504024113 | 53 | 52 | 2.0 | 5.0 | 0.00 | 0.00 | 0.00 | 44 | 1012.7 |
| 20260504023609 | 54 | 33 | 5.0 | 7.0 | 0.00 | 0.00 | 0.00 | 43 | 1012.8 |
| 20260504023105 | 55 | 50 | 4.0 | 11.0 | 0.00 | 0.00 | 0.00 | 41 | 1012.4 |
| 20260504022601 | 56 | 55 | 4.0 | 9.0 | 0.00 | 0.00 | 0.00 | 40 | 1012.2 |
| 20260504022058 | 56 | 77 | 6.0 | 13.0 | 0.00 | 0.00 | 0.00 | 40 | 1012.5 |
| 20260504021555 | 56 | 56 | 3.0 | 7.0 | 0.00 | 0.00 | 0.00 | 40 | 1012.8 |
| 20260504021052 | 57 | 49 | 5.0 | 9.0 | 0.00 | 0.00 | 0.00 | 39 | 1012.3 |
| 20260504020549 | 58 | 48 | 6.0 | 8.0 | 0.00 | 0.00 | 0.00 | 38 | 1012.7 |
| 20260504020045 | 59 | 42 | 7.0 | 10.0 | 0.00 | 0.00 | 0.00 | 38 | 1012.7 |
| 20260504015542 | 59 | 41 | 10.0 | 16.0 | 0.00 | 0.00 | 0.00 | 36 | 1012.5 |
| 20260504015038 | 61 | 43 | 9.0 | 20.0 | 0.00 | 0.00 | 0.00 | 35 | 1012.4 |
| 20260504014534 | 60 | 21 | 13.0 | 20.0 | 0.00 | 0.00 | 0.00 | 35 | 1013.0 |
| 20260504014031 | 60 | 34 | 7.0 | 17.0 | 0.00 | 0.00 | 0.00 | 35 | 1012.5 |
| 20260504013529 | 60 | 29 | 14.0 | 20.0 | 0.00 | 0.00 | 0.00 | 35 | 1012.5 |
| 20260504013026 | 60 | 31 | 10.0 | 17.0 | 0.00 | 0.00 | 0.00 | 35 | 1012.4 |
| 20260504012524 | 61 | 34 | 11.0 | 17.0 | 0.00 | 0.00 | 0.00 | 35 | 1012.5 |
| 20260504012021 | 62 | 8 | 11.0 | 26.0 | 0.00 | 0.00 | 0.00 | 34 | 1012.3 |
| 20260504011518 | 64 | 36 | 17.0 | 18.0 | 0.00 | 0.00 | 0.00 | 27 | 1012.1 |
| 20260504011014 | 64 | 47 | 3.0 | 6.0 | 0.00 | 0.00 | 0.00 | 26 | 1011.9 |
| 20260504010510 | 64 | 33 | 5.0 | 10.0 | 0.00 | 0.00 | 0.00 | 25 | 1012.2 |
| 20260504010006 | 65 | 38 | 6.0 | 11.0 | 0.00 | 0.00 | 0.00 | 26 | 1012.1 |
| 20260504005503 | 65 | 36 | 7.0 | 11.0 | 0.00 | 0.00 | 0.00 | 25 | 1011.9 |
| 20260504005000 | 65 | 36 | 9.0 | 14.0 | 0.00 | 0.00 | 0.00 | 25 | 1012.1 |
| 20260504004458 | 65 | 32 | 13.0 | 17.0 | 0.00 | 0.00 | 0.00 | 25 | 1012.1 |
| 20260504003955 | 66 | 32 | 9.0 | 16.0 | 0.00 | 0.00 | 0.00 | 25 | 1012.1 |
| 20260504003451 | 66 | 14 | 8.0 | 14.0 | 0.00 | 0.00 | 0.00 | 25 | 1011.9 |
| 20260504002948 | 66 | 50 | 12.0 | 21.0 | 0.00 | 0.00 | 0.00 | 25 | 1011.9 |
| 20260504002445 | 66 | 27 | 6.0 | 10.0 | 0.00 | 0.00 | 0.00 | 25 | 1011.6 |
| 20260504001942 | 66 | 5 | 8.0 | 9.0 | 0.00 | 0.00 | 0.00 | 26 | 1011.7 |
| 20260504001439 | 66 | 138 | 1.0 | 2.0 | 0.00 | 0.00 | 0.00 | 25 | 1011.7 |
| 20260504000936 | 66 | 158 | 3.0 | 8.0 | 0.00 | 0.00 | 0.00 | 25 | 1011.8 |
| 20260504000433 | 67 | 162 | 11.0 | 13.0 | 0.00 | 0.00 | 0.00 | 25 | 1011.8 |
| 20260503235930 | 67 | 158 | 9.0 | 11.0 | 0.00 | 0.00 | 0.00 | 25 | 1011.6 |
| 20260503235428 | 67 | 178 | 8.0 | 11.0 | 0.00 | 0.00 | 0.00 | 25 | 1012.1 |
| 20260503234925 | 67 | 151 | 6.0 | 10.0 | 0.00 | 0.00 | 0.00 | 25 | 1011.9 |
| 20260503234423 | 67 | 165 | 9.0 | 10.0 | 0.00 | 0.00 | 0.00 | 25 | 1011.8 |
| 20260503233921 | 67 | 152 | 9.0 | 13.0 | 0.00 | 0.00 | 0.00 | 25 | 1011.5 |
| 20260503233417 | 67 | 160 | 10.0 | 13.0 | 0.00 | 0.00 | 0.00 | 25 | 1011.7 |
| 20260503232913 | 67 | 183 | 12.0 | 14.0 | 0.00 | 0.00 | 0.00 | 24 | 1011.6 |
| 20260503232411 | 66 | 146 | 8.0 | 11.0 | 0.00 | 0.00 | 0.00 | 25 | 1011.8 |
| 20260503231909 | 66 | 215 | 6.0 | 7.0 | 0.00 | 0.00 | 0.00 | 27 | 1011.9 |
| 20260503231406 | 66 | 224 | 5.0 | 15.0 | 0.00 | 0.00 | 0.00 | 25 | 1011.8 |
| 20260503230902 | 67 | 228 | 3.0 | 8.0 | 0.00 | 0.00 | 0.00 | 29 | 1011.9 |
| 20260503230358 | 67 | 169 | 2.0 | 5.0 | 0.00 | 0.00 | 0.00 | 25 | 1011.9 |
| 20260503225856 | 67 | 154 | 1.0 | 6.0 | 0.00 | 0.00 | 0.00 | 24 | 1011.8 |
| 20260503225352 | 68 | 197 | 0.0 | 6.0 | 0.00 | 0.00 | 0.00 | 25 | 1011.8 |
| 20260503224848 | 68 | 164 | 5.0 | 7.0 | 0.00 | 0.00 | 0.00 | 24 | 1012.2 |
| 20260503224345 | 68 | 162 | 0.0 | 8.0 | 0.00 | 0.00 | 0.00 | 24 | 1012.1 |
| 20260503223843 | 69 | 192 | 7.0 | 8.0 | 0.00 | 0.00 | 0.00 | 22 | 1011.9 |
| 20260503223340 | 68 | 192 | 2.0 | 5.0 | 0.00 | 0.00 | 0.00 | 23 | 1012.3 |
| 20260503222836 | 67 | 193 | 6.0 | 7.0 | 0.00 | 0.00 | 0.00 | 25 | 1012.3 |
| 20260503222335 | 66 | 103 | 5.0 | 10.0 | 0.00 | 0.00 | 0.00 | 24 | 1012.7 |
| 20260503221832 | 65 | 280 | 7.0 | 14.0 | 0.00 | 0.00 | 0.00 | 24 | 1012.9 |
| 20260503221331 | 65 | 31 | 8.0 | 10.0 | 0.00 | 0.00 | 0.00 | 27 | 1013.1 |
| 20260503220826 | 65 | 59 | 3.0 | 5.0 | 0.00 | 0.00 | 0.00 | 27 | 1013.0 |
| 20260503220323 | 66 | 139 | 9.0 | 11.0 | 0.00 | 0.00 | 0.00 | 27 | 1013.0 |
| 20260503215820 | 66 | 159 | 5.0 | 9.0 | 0.00 | 0.00 | 0.00 | 26 | 1012.8 |
| 20260503215312 | 67 | 105 | 8.0 | 10.0 | 0.00 | 0.00 | 0.00 | 26 | 1012.8 |
| 20260503214810 | 68 | 216 | 11.0 | 14.0 | 0.00 | 0.00 | 0.00 | 24 | 1012.8 |
| 20260503214306 | 68 | 190 | 0.0 | 3.0 | 0.00 | 0.00 | 0.00 | 23 | 1012.8 |
| 20260503213804 | 68 | 222 | 8.0 | 14.0 | 0.00 | 0.00 | 0.00 | 23 | 1012.9 |
| 20260503213301 | 68 | 223 | 7.0 | 9.0 | 0.00 | 0.00 | 0.00 | 27 | 1013.1 |
| 20260503212758 | 68 | 163 | 9.0 | 11.0 | 0.00 | 0.00 | 0.00 | 24 | 1013.4 |
| 20260503212256 | 68 | 206 | 12.0 | 14.0 | 0.00 | 0.00 | 0.00 | 26 | 1013.4 |
| 20260503211753 | 69 | 154 | 7.0 | 15.0 | 0.00 | 0.00 | 0.00 | 26 | 1013.5 |
| 20260503211249 | 68 | 211 | 5.0 | 10.0 | 0.00 | 0.00 | 0.00 | 25 | 1013.7 |
| 20260503210744 | 68 | 225 | 4.0 | 8.0 | 0.00 | 0.00 | 0.00 | 24 | 1013.7 |
| 20260503210242 | 67 | 198 | 7.0 | 8.0 | 0.00 | 0.00 | 0.00 | 27 | 1013.8 |
| 20260503205737 | 67 | 188 | 5.0 | 7.0 | 0.00 | 0.00 | 0.00 | 24 | 1014.0 |
| 20260503205233 | 66 | 210 | 2.0 | 5.0 | 0.00 | 0.00 | 0.00 | 26 | 1014.1 |
| 20260503204730 | 66 | 179 | 3.0 | 8.0 | 0.00 | 0.00 | 0.00 | 26 | 1014.3 |
| 20260503204228 | 66 | 191 | 1.0 | 2.0 | 0.00 | 0.00 | 0.00 | 25 | 1014.4 |
| 20260503203725 | 66 | 12 | 6.0 | 9.0 | 0.00 | 0.00 | 0.00 | 25 | 1014.5 |
| 20260503203222 | 66 | 85 | 2.0 | 7.0 | 0.00 | 0.00 | 0.00 | 25 | 1014.4 |
| 20260503202719 | 66 | 31 | 8.0 | 9.0 | 0.00 | 0.00 | 0.00 | 25 | 1014.4 |
| 20260503202217 | 66 | 112 | 1.0 | 7.0 | 0.00 | 0.00 | 0.00 | 25 | 1014.3 |
| 20260503201715 | 67 | 336 | 3.0 | 6.0 | 0.00 | 0.00 | 0.00 | 25 | 1014.4 |
| 20260503201212 | 69 | 217 | 4.0 | 7.0 | 0.00 | 0.00 | 0.00 | 25 | 1014.5 |
| 20260503200708 | 68 | 190 | 0.0 | 0.0 | 0.00 | 0.00 | 0.00 | 24 | 1014.4 |
| 20260503200205 | 67 | 194 | 2.0 | 2.0 | 0.00 | 0.00 | 0.00 | 25 | 1014.7 |
| 20260503195702 | 67 | 174 | 1.0 | 6.0 | 0.00 | 0.00 | 0.00 | 26 | 1015.1 |
| 20260503195158 | 66 | 181 | 3.0 | 7.0 | 0.00 | 0.00 | 0.00 | 25 | 1014.8 |
| 20260503194655 | 65 | 193 | 0.0 | 5.0 | 0.00 | 0.00 | 0.00 | 26 | 1014.8 |
| 20260503194151 | 66 | 230 | 5.0 | 6.0 | 0.00 | 0.00 | 0.00 | 27 | 1015.0 |
| 20260503193648 | 65 | 190 | 0.0 | 0.0 | 0.00 | 0.00 | 0.00 | 27 | 1014.8 |
| 20260503193143 | 65 | 182 | 0.0 | 0.0 | 0.00 | 0.00 | 0.00 | 26 | 1015.1 |
| 20260503192639 | 64 | 210 | 2.0 | 6.0 | 0.00 | 0.00 | 0.00 | 26 | 1014.9 |
| 20260503192135 | 65 | 269 | 7.0 | 9.0 | 0.00 | 0.00 | 0.00 | 26 | 1015.0 |
| 20260503191632 | 65 | 186 | 0.0 | 11.0 | 0.00 | 0.00 | 0.00 | 26 | 1015.0 |
| 20260503191129 | 65 | 150 | 5.0 | 8.0 | 0.00 | 0.00 | 0.00 | 26 | 1015.1 |
| 20260503190626 | 66 | 109 | 1.0 | 6.0 | 0.00 | 0.00 | 0.00 | 26 | 1015.1 |
| 20260503190123 | 66 | 63 | 3.0 | 5.0 | 0.00 | 0.00 | 0.00 | 26 | 1015.1 |
| 20260503185614 | 65 | 125 | 3.0 | 8.0 | 0.00 | 0.00 | 0.00 | 26 | 1015.4 |
| 20260503185114 | 66 | 81 | 5.0 | 9.0 | 0.00 | 0.00 | 0.00 | 27 | 1015.4 |
| 20260503184610 | 65 | 190 | 2.0 | 5.0 | 0.00 | 0.00 | 0.00 | 27 | 1015.6 |
| 20260503184106 | 64 | 235 | 3.0 | 7.0 | 0.00 | 0.00 | 0.00 | 27 | 1015.7 |
| 20260503183557 | 65 | 47 | 6.0 | 13.0 | 0.00 | 0.00 | 0.00 | 27 | 1015.7 |
| 20260503183055 | 65 | 130 | 6.0 | 7.0 | 0.00 | 0.00 | 0.00 | 28 | 1016.0 |
| 20260503182553 | 65 | 82 | 3.0 | 5.0 | 0.00 | 0.00 | 0.00 | 29 | 1015.8 |
| 20260503182051 | 65 | 143 | 5.0 | 8.0 | 0.00 | 0.00 | 0.00 | 28 | 1016.0 |
| 20260503181547 | 63 | 82 | 1.0 | 2.0 | 0.00 | 0.00 | 0.00 | 29 | 1016.3 |
| 20260503181043 | 63 | 103 | 2.0 | 11.0 | 0.00 | 0.00 | 0.00 | 31 | 1016.3 |